This is the latest recevied weather packets stored in our database for station/object K7NDG. If no packets are shown the sender has not sent any weather packets the latest 10 day(s).
| Time | Temp. | Humidity | Pressure | Rain* | Wind** | Luminosity | Snow |
|---|---|---|---|---|---|---|---|
| 1777821867 | 13.89° C | 83% | 1014.2 hPa | 0 mm | - | 170 W/m² | - |
| 1777820959 | 12.78° C | 85% | 1014.3 hPa | 0 mm | - | 155 W/m² | - |
| 1777817019 | 11.11° C | 90% | 1014.1 hPa | 0 mm | - | 38 W/m² | - |
| 1777813081 | 10° C | 92% | 1013.9 hPa | 0 mm | - | 1 W/m² | - |
| 1777811870 | 9.44° C | 91% | 1014 hPa | 0 mm | - | 0 W/m² | - |
| 1777811569 | 10° C | 91% | 1014.3 hPa | 0 mm | - | 0 W/m² | - |
| 1777811264 | 10° C | 91% | 1014.1 hPa | 0 mm | - | 0 W/m² | - |
| 1777810962 | 10° C | 91% | 1014.3 hPa | 0 mm | - | 0 W/m² | - |
| 1777810658 | 10° C | 91% | 1014.1 hPa | 0 mm | - | 0 W/m² | - |
| 1777810051 | 10° C | 91% | 1014.3 hPa | 0 mm | - | 0 W/m² | - |
| 1777809749 | 10° C | 91% | 1014.2 hPa | 0 mm | - | 0 W/m² | - |
| 1777809446 | 10° C | 91% | 1014.4 hPa | 0 mm | - | 0 W/m² | - |
| 1777808842 | 10° C | 91% | 1014.4 hPa | 0 mm | - | 0 W/m² | - |
| 1777808538 | 10° C | 90% | 1014.2 hPa | 0 mm | - | 0 W/m² | - |
| 1777808235 | 10° C | 90% | 1014.2 hPa | 0 mm | - | 0 W/m² | - |
| 1777807631 | 10° C | 90% | 1014.3 hPa | 0 mm | - | 0 W/m² | - |
| 1777807328 | 10° C | 90% | 1014.5 hPa | 0 mm | - | 0 W/m² | - |
| 1777807024 | 10.56° C | 90% | 1014.1 hPa | 0 mm | - | 0 W/m² | - |
| 1777806721 | 10.56° C | 90% | 1014.3 hPa | 0 mm | - | 0 W/m² | - |
| 1777806417 | 10.56° C | 91% | 1014 hPa | 0 mm | - | 0 W/m² | - |
| 1777806114 | 10.56° C | 90% | 1014.5 hPa | 0 mm | - | 0 W/m² | - |
| 1777805508 | 10.56° C | 90% | 1014.3 hPa | 0 mm | - | 0 W/m² | - |
| 1777804601 | 11.11° C | 91% | 1014.4 hPa | 0 mm | - | 0 W/m² | - |
| 1777803995 | 11.11° C | 90% | 1014.3 hPa | 0 mm | - | 0 W/m² | - |
| 1777803692 | 10.56° C | 90% | 1014.3 hPa | 0 mm | - | 0 W/m² | - |
* Rain latest hour (hover to see other rain measurements)
** Current wind speed in m/s (hover to see current wind gust speed)